User: anonymous   Login
Location: Raleigh
(35.7720°N, 78.6390°W)
Time: 11:53:20
(UTC-05:00)
Language:

FO-29 - Orbit

View from above orbital plane
View from above orbital plane
View from above satellite
View from above satellite

Ground track
Ground track

The orbit data is extracted from the following two-line orbital elements,

1 24278U 96046B   17056.50630730 -.00000032  00000-0  62744-5 0  9995
2 24278  98.5795 314.5365 0349316 266.7133  89.3995 13.53074801 13772
Epoch (UTC): 25 February 2017 12:09:04
Eccentricity: 0.0349316
inclination: 98.5795°
perigee height: 801 km
apogee height: 1321 km
right ascension of ascending node: 314.5365°
argument of perigee: 266.7133°
revolutions per day: 13.53074801
mean anomaly at epoch: 89.3995°
orbit number at epoch: 1377

The dashed part of the orbit path shows where the satellite is in the earth's shadow,  

DLR